Regional Weather Roundup
Issued by NWS

Home | Current Version | Previous Version | Text Only | Print | Product List | Glossary On
Versions: 1 2 3 4 5 6 7 8 9 10 11 12 13 14 15 16 17 18 19 20 21 22 23 24 25 26 27 28 29 30 31 32 33 34 35 36 37 38 39 40 41 42 43 44 45 46 47 48 49 50
000
ASUS43 KMPX 281310
RWRMN
WEATHER ROUNDUP FOR MINNESOTA
NATIONAL WEATHER SERVICE TWIN CITIES/CHANHASSEN MN
700 AM CST TUE FEB 28 2017


NOTE: "FAIR" INDICATES FEW OR NO CLOUDS BELOW 12,000 FEET WITH NO
SIGNIFICANT WEATHER AND/OR OBSTRUCTIONS TO VISIBILITY. N/A MEANS
CURRENT SKY AND/OR WEATHER CONDITIONS ARE NOT AVAILABLE.

MNZ060>063-068>070-281400-
   Twin Cities Metro

CITY           SKY/WX    TMP DP  RH WIND       PRES   REMARKS
TWIN CITIES    CLOUDY    36  29  75 NE7       29.74S
ST PAUL        CLOUDY    36  30  79 CALM      29.75F
CRYSTAL        CLOUDY    35  27  72 NW6       29.73F WCI  30
BLAINE         CLOUDY    37  32  81 NE7       29.73F
LAKEVILLE      CLOUDY    34  32  93 N5        29.73S WCI  30
EDEN PRAIRIE   CLOUDY    36  29  75 NE7       29.72S
SOUTH ST PAUL  CLOUDY    37  31  78 N5        29.73F
LAKE ELMO      FAIR      36  32  87 NE5       29.75S
$$
MNZ001>005-007-008-013>017-022>024-027-028-281400-
   Northwest Minnesota

CITY           SKY/WX    TMP DP  RH WIND       PRES   REMARKS
BEMIDJI        CLOUDY    21  17  83 NE9       29.81F WCI  11
HALLOCK        CLEAR      5   0  78 N10       29.95F WCI -10
ROSEAU         CLEAR     -2  -6  84 N6        29.94S WCI -14
WARROAD        CLEAR      5   1  85 N9        29.94S WCI  -9
THIEF RVR FALL FLURRIES  15  11  83 N9        29.89  WCI   3
CROOKSTON      CLEAR     18  14  86 N7        29.91R WCI   8
FOSSTON        CLOUDY    16  10  79 NE8       29.85S WCI   5
DETROIT LAKES  PTCLDY    23  18  80 NE8       29.79F WCI  14
MOORHEAD       CLEAR     19  16  86 N13       29.85R WCI   7
PARK RAPIDS    CLOUDY    24  15  68 NE7       29.78R WCI  16
MAHNOMEN       FAIR      19  16  90 NE9       29.82S WCI   7
$$
MNZ006-009>011-018-025>026-281400-
   North Central Minnesota

CITY           SKY/WX    TMP DP  RH WIND       PRES   REMARKS
BAUDETTE       CLEAR     13   9  84 N7        29.90S WCI   3
FLAG ISLAND    CLEAR      7   1  78 N7        29.95S WCI  -5
INTL FALLS     CLOUDY    19  14  81 NE9       29.88F WCI   8
WASKISH        CLOUDY    21  18  86 NE8       29.86F WCI  12
BIG FORK       CLOUDY    23  19  86 N8        29.83S WCI  14
LONGVILLE      CLOUDY    25  21  86 N5        29.81R WCI  19
GRAND RAPIDS   CLOUDY    25  22  88 N8        29.82R WCI  16
CRANE LAKE     CLOUDY    19  18  93 N3        29.89F
ORR            CLOUDY    21  16  79 CALM      29.82F
COOK           CLOUDY    23  19  86 NE5       29.83S WCI  17
WALKER         PTSUNNY   22  18  85 NE7       29.80F WCI  13
$$
MNZ012-019>021-037-281400-
   Northeast Minnesota

CITY           SKY/WX    TMP DP  RH WIND       PRES   REMARKS
DULUTH         LGT SNOW  29  29 100 E8        29.77F VSB 3/4 WCI  21
ELY            CLOUDY    23  21  93 NE6       29.82S WCI  16
HIBBING        CLOUDY    26  23  88 NE10      29.79S WCI  16
EVELETH        CLOUDY    28  24  86 NE7       29.81S WCI  20
DULUTH HARBOR  MIX PCPN  34  30  86 CALM      29.82F
TWO HARBORS    CLOUDY    30  27  86 CALM      29.79R
SILVER BAY     CLOUDY    28  28 100 N3        29.80R
GRAND MARAIS     N/A     30  27  88 VRB5      29.85F WCI  25
G MARAIS ARPRT LGT SNOW  21  19  93 N5        29.80S WCI  15
$$
MNZ029>031-032-039>041-046>048-054>057-064-281400-
   West Central Minnesota

CITY           SKY/WX    TMP DP  RH WIND       PRES   REMARKS
FERGUS FALLS   CLOUDY    27  19  74 NE7       29.82S WCI  19
WHEATON        CLOUDY    25  19  80 NW10      29.81S WCI  15
MORRIS         FLURRIES  28  27  93 NW7       29.75R WCI  21
ALEXANDRIA     LGT SNOW  32  30  92 NE7       29.75R FOG     WCI  26
ELBOW LAKE     CLOUDY    28  24  86 NE7       29.76S WCI  20
WADENA         CLOUDY    25  19  80 NE9       29.77R WCI  15
GLENWOOD       LGT SNOW  32  30  93 NE7       29.74F WCI  26
APPLETON       CLOUDY    30  27  86 CALM      29.76R
BENSON         LGT RAIN  36  30  80 N5        29.77R
ORTONVILLE     MIX PCPN  27  23  86 N9        29.76S WCI  17
MADISON        LGT SNOW  30  30 100 N9        29.75F WCI  22
WILLMAR        FAIR      36  32  87 NE8       29.75S
$$
MNZ033>034-036-042>043-049>051-058-059-281400-
   Central Minnesota

CITY           SKY/WX    TMP DP  RH WIND       PRES   REMARKS
ST CLOUD       CLOUDY    34  29  82 N3        29.75S
SAUK CENTRE    LGT SNOW  32  31  97 CALM      29.75S
PAYNESVILLE    CLOUDY    33  33 100 N6        29.75S WCI  27
AITKIN         CLOUDY    32  27  80 N5        29.77R WCI  27
PINE RIVER     CLOUDY    25  19  80 N9        29.82R WCI  15
BRAINERD       CLOUDY    30  26  85 N6        29.77R WCI  24
STAPLES        CLOUDY    27  21  80 N5        29.77S WCI  21
LONG PRAIRIE   LGT SNOW  32  30  93 NW5       29.76R WCI  27
LITTLE FALLS   LGT SNOW  32  30  93 CALM      29.76S
LITCHFIELD     PTCLDY    34  30  86 NE5       29.74S WCI  30
BUFFALO        CLOUDY    34  28  79 N5        29.75F WCI  30
MAPLE LAKE     CLOUDY    34  30  86 NE3       29.75S
HUTCHINSON     MOCLDY    35  31  87 NE8       29.74S WCI  28
$$
MNZ037-044-045-052-053-281400-
   East Central Minnesota

CITY           SKY/WX    TMP DP  RH WIND       PRES   REMARKS
PRINCETON      CLOUDY    34  28  80 NE3       29.76S
MORA           CLOUDY    32  28  86 CALM      29.79R
CAMBRIDGE      CLOUDY    36  27  69 NE3       29.75R
RUSH CITY      CLOUDY    32  28  86 NE5       29.77S WCI  27
MOOSE LAKE     LGT SNOW  30  28  93 NE3       29.77R
HINCKLEY       CLOUDY    32  30  93 CALM      29.77F
CLOQUET        LGT SNOW  28  28 100 E3        29.77S
MCGREGOR       CLOUDY    30  30 100 N3        29.78R
$$
MNZ071>073-080-081-089-090-097-098-281400-
   Southwest Minnesota

CITY           SKY/WX    TMP DP  RH WIND       PRES   REMARKS
MONTEVIDEO     LGT SNOW  32  32 100 N6        29.76R WCI  26
GRANITE FALLS  CLOUDY    33  31  94 N6        29.74F FOG     WCI  27
CANBY          LGT SNOW  28  28  96 NW8       29.75F WCI  20
MARSHALL       CLOUDY    30  29  96 NW9       29.73S FOG     WCI  22
REDWOOD FALLS  CLOUDY    33  29  85 NE5       29.71F WCI  29
OLIVIA         CLOUDY    34  32  93 N7        29.72F WCI  28
PIPESTONE      CLOUDY    30  27  86 NE12G17   29.67F WCI  21
WINDOM         PTCLDY    30  30 100 N8        29.68F FOG     WCI  23
WORTHINGTON    CLOUDY    30  28  93 NE8       29.69R FOG     WCI  23
JACKSON        CLOUDY    30  28  93 N7        29.68F FOG     WCI  23
TRACY          MOCLDY    32  31  98 N7        29.70F FOG     WCI  25
SLAYTON        PTCLDY    30  29  97 N10       29.69F FOG     WCI  21
$$
MNZ065>067-074>077-082>085-091>093-281400-
   South Central Minnesota

CITY           SKY/WX    TMP DP  RH WIND       PRES   REMARKS
MANKATO          N/A     32  30  92 N10       29.70F WCI  24
NEW ULM        MOCLDY    34  28  80 NE5       29.71F WCI  30
ST JAMES       CLOUDY    34  30  86 N6        29.71F WCI  29
FAIRMONT       CLOUDY    30  29  96 N12       29.69R WCI  20
GLENCOE        CLOUDY    36  33  90 N6        29.73S
FARIBAULT      CLOUDY    34  32  93 N6        29.71R WCI  29
OWATONNA       CLOUDY    36  32  87 CALM      29.68F
WASECA         CLOUDY    34  32  93 NE3       29.69F
ALBERT LEA     CLOUDY    36  34  93 SE3       29.66F
$$
MNZ078>079-086>088-094>096-281400-
   Southeast Minnesota

CITY           SKY/WX    TMP DP  RH WIND       PRES   REMARKS
ROCHESTER      CLOUDY    36  35  96 SE10      29.67F
RED WING       CLOUDY    36  30  80 CALM      29.71F
STANTON        CLOUDY    35  32  89 N8        29.70S WCI  28
WINONA         CLOUDY    36  34  93 CALM      29.72F
AUSTIN         CLOUDY    36  34  93 SE7       29.67F
PRESTON        CLOUDY    36  35  93 SE6       29.69F FOG
$$
ABBREVIATIONS USED IN REMARKS
   TC - TEMPERATURES IN CELSIUS
  WCI - WIND CHILL INDEX
   HX - HEAT INDEX
  VSB - VISIBILITY
$$



USA.gov is the U.S. government's official web portal to all federal, state and local government web resources and services.